Location: Nemiskam
(49.4820°N, 111.2775°W)
Time: 02:08:13
(UTC+00:00)

Envisat - Visible Passes

Search period start: 27 November 2022 00:00
Search period end: 07 December 2022 00:00
Orbit: 763 x 765 km, 98.2° (Epoch: 26 November)

Date Brightness Start Highest point End Pass type
(mag) Time Alt. Az. Time Alt. Az. Time Alt. Az.
27 Nov 4.2 11:26:10 10° NNE 11:29:28 37° NE 11:29:28 37° NE visible
27 Nov 4.0 13:05:44 10° N 13:09:39 25° WNW 13:09:39 25° WNW visible
28 Nov 6.1 00:28:02 10° WSW 00:29:44 12° W 00:31:27 10° WNW visible
28 Nov 5.3 10:49:38 10° NE 10:51:50 20° ENE 10:51:50 20° ENE visible
28 Nov 3.5 12:28:17 10° N 12:32:00 40° NNW 12:32:00 40° NNW visible
29 Nov 6.0 10:14:05 10° ENE 10:14:12 10° ENE 10:14:12 10° ENE visible
29 Nov 3.9 11:51:08 10° NNE 11:54:22 40° NNE 11:54:22 40° NNE visible
29 Nov 4.4 13:31:24 10° NNW 13:34:32 17° NW 13:34:32 17° NW visible
30 Nov 4.8 11:14:18 10° NNE 11:16:44 26° NE 11:16:44 26° NE visible
30 Nov 3.9 12:53:36 10° N 12:56:55 28° NW 12:56:55 28° NW visible
01 Dec 5.9 00:14:48 10° WSW 00:17:36 15° W 00:20:25 10° NW visible
01 Dec 5.7 10:37:58 10° NE 10:39:07 15° NE 10:39:07 15° NE visible
01 Dec 3.9 12:16:15 10° N 12:19:18 35° N 12:19:18 35° N visible
01 Dec 4.8 13:57:46 10° NNW 13:59:15 11° NW 13:59:28 11° NW visible
02 Dec 4.5 11:39:12 10° NNE 11:41:41 29° NNE 11:41:41 29° NNE visible
02 Dec 4.4 13:19:07 10° NNW 13:21:51 19° NW 13:21:51 19° NW visible
03 Dec 5.3 11:02:29 10° NNE 11:04:05 19° NE 11:04:05 19° NE visible
03 Dec 4.1 12:41:30 10° N 12:44:15 27° NNW 12:44:15 27° NNW visible
04 Dec 5.7 00:02:00 10° SW 00:05:30 18° W 00:09:01 10° NW visible
04 Dec 6.0 10:26:25 10° NE 10:26:29 10° NE 10:26:29 10° NE visible
04 Dec 4.3 12:04:15 10° N 12:06:39 28° N 12:06:39 28° N visible
04 Dec 4.7 13:45:02 10° NNW 13:46:50 13° NW 13:46:50 13° NW visible
05 Dec 5.0 11:27:17 10° NNE 11:29:04 22° NNE 11:29:04 22° NNE visible
05 Dec 4.4 13:06:55 10° N 13:09:15 20° NNW 13:09:15 20° NNW visible
06 Dec 6.2 00:29:32 10° W 00:30:55 11° W 00:32:18 10° WNW visible
06 Dec 5.7 10:50:43 10° NE 10:51:30 14° NE 10:51:30 14° NE visible
06 Dec 4.4 12:29:25 10° N 12:31:40 25° N 12:31:40 25° N visible
